Overview Statistics Trail Chart Weather Telemetry Raw packets
 

This is the latest recevied weather packets stored in our database for station/object N7WSS. If no packets are shown the sender has not sent any weather packets the latest 10 day(s).

<< 83 84 85 86 87 88 89 >>
Time Temp. Humidity Pressure Rain* Wind** Luminosity Snow
1788022827 36.67° C 32% 1015.4 hPa 0 mm - - -
1788022525 36.11° C 33% 1015.1 hPa 0 mm - - -
1788022220 36.11° C 33% 1015.2 hPa 0 mm - - -
1788021918 36.11° C 32% 1015.4 hPa 0 mm - - -
1788021614 36.11° C 32% 1015.1 hPa 0 mm - - -
1788021310 36.11° C 32% 1015.3 hPa 0 mm - - -
1788021006 35.56° C 33% 1015.5 hPa 0 mm - - -
1788020702 35.56° C 33% 1015.5 hPa 0 mm - - -
1788020402 35.56° C 33% 1015.3 hPa 0 mm - - -
1788020099 35° C 34% 1015.3 hPa 0 mm - - -
1788019798 35° C 34% 1015.4 hPa 0 mm - - -
1788019498 35° C 34% 1015.5 hPa 0 mm - - -
1788019196 35.56° C 33% 1015.3 hPa 0 mm - - -
1788018890 35.56° C 33% 1015.4 hPa 0 mm - - -
1788018585 35.56° C 33% 1015.3 hPa 0 mm - - -
1788018283 35.56° C 33% 1015.2 hPa 0 mm - - -
1788017980 34.44° C 34% 1015.1 hPa 0 mm - - -
1788017676 34.44° C 34% 1015.2 hPa 0 mm - - -
1788017373 33.89° C 34% 1015.2 hPa 0 mm - - -
1788017069 33.33° C 35% 1015.2 hPa 0 mm - - -
1788016768 33.89° C 34% 1015.2 hPa 0 mm - - -
1788016466 33.33° C 35% 1015 hPa 0 mm - - -
1788016161 32.78° C 35% 1015.3 hPa 0 mm - - -
1788015860 32.78° C 36% 1015.2 hPa 0 mm - - -
1788015555 33.33° C 36% 1015 hPa 0 mm - - -

* Rain latest hour (hover to see other rain measurements)
** Current wind speed in m/s (hover to see current wind gust speed)